Location: Luxembourg
(49.6000°N, 6.1500°W)
Time: 09:24:14
(UTC+01:00)

N. Korean satellite - Visible Passes

Search period start: 21 November 2017 00:00
Search period end: 01 December 2017 00:00
Orbit: 460 x 514 km, 97.2° (Epoch: 20 November)

Date Brightness Start Highest point End Pass type
(mag) Time Alt. Az. Time Alt. Az. Time Alt. Az.
21 Nov 6.6 18:56:03 10° SSE 18:59:28 51° ENE 19:02:59 10° N visible
21 Nov 9.8 20:31:31 10° WSW 20:33:20 13° W 20:35:10 10° WNW visible
22 Nov 8.4 07:52:19 10° NNE 07:55:51 39° E 07:59:24 10° SSE visible
22 Nov 7.4 18:33:01 10° SE 18:36:06 28° ENE 18:39:14 10° N visible
22 Nov 9.0 20:06:44 10° SSW 20:09:38 23° W 20:12:35 10° NW visible
23 Nov 9.5 07:29:15 10° NE 07:32:14 22° E 07:35:14 10° SE visible
23 Nov 8.1 18:10:25 10° ESE 18:12:48 17° ENE 18:15:12 10° NNE visible
23 Nov 7.8 19:42:37 10° S 19:46:01 43° W 19:49:29 10° NNW visible
24 Nov 10.1 07:06:45 10° ENE 07:08:32 13° E 07:10:19 10° ESE visible
24 Nov 6.5 19:18:55 10° SSE 19:22:28 83° WSW 19:26:07 10° NNW visible
25 Nov 7.0 08:15:12 10° NNE 08:18:58 72° ESE 08:22:43 10° S visible
25 Nov 6.7 18:55:33 10° SSE 18:59:00 51° ENE 19:02:33 10° N visible
25 Nov 9.8 20:30:59 10° WSW 20:32:51 14° W 20:34:46 10° WNW visible
26 Nov 8.3 07:51:51 10° NNE 07:55:25 39° E 07:58:57 10° SSE visible
26 Nov 7.4 18:32:30 10° SE 18:35:36 29° ENE 18:38:48 10° N visible
26 Nov 9.0 20:06:12 10° SSW 20:09:09 24° W 20:12:10 10° NW visible
27 Nov 9.5 07:28:46 10° NE 07:31:47 22° E 07:34:46 10° SE visible
27 Nov 8.1 18:09:53 10° ESE 18:12:18 17° ENE 18:14:46 10° NNE visible
27 Nov 7.8 19:42:05 10° S 19:45:31 43° W 19:49:01 10° NNW visible
28 Nov 10.0 07:06:16 10° ENE 07:08:03 13° E 07:09:50 10° ESE visible
28 Nov 6.6 19:18:22 10° SSE 19:21:57 84° W 19:25:38 10° NNW visible
29 Nov 7.0 08:14:41 10° NNE 08:18:28 72° ESE 08:22:14 10° S visible
29 Nov 6.7 18:54:58 10° SSE 18:58:28 51° ENE 19:02:04 10° N visible
29 Nov 9.8 20:30:22 10° WSW 20:32:19 14° W 20:34:19 10° NW visible
30 Nov 8.3 07:51:20 10° NNE 07:54:54 38° E 07:58:26 10° SSE visible
30 Nov 7.4 18:31:55 10° SE 18:35:04 29° ENE 18:38:17 10° N visible
30 Nov 9.0 20:05:36 10° SSW 20:08:36 24° W 20:11:39 10° NW visible
